Preview of NWS' New Version of Forecast
This preview is not operational and should not be used for support decisions.

Regional Weather Roundup (RWR)

Issued by National Weather Service (NWS)

                            
000
ASUS45 KABQ 230901
RWRNM 
NEW MEXICO REGIONAL WEATHER ROUNDUP
NATIONAL WEATHER SERVICE ALBUQUERQUE NM
300 AM MDT TUE JUL 23 2019

NOTE: "FAIR" MEANS FEW OR NO CLOUDS BELOW 12,000 FEET AGL WITH NO
       SIGNIFICANT WEATHER OR OBSTRUCTIONS TO VISION.

      THIS PRODUCT IS RELEASED AS TWO VERSIONS.  ONE VERSION NEAR
      THE TOP OF THE HOUR CONTAINING PRELIMINARY DATA FROM ALBUQUERQUE
      AND OTHER STATIONS.  A FINAL VERSION WITH ADDITIONAL DATA IS 
      ISSUED ABOUT 10 MINUTES AFTER THE HOUR.
 
NMZ501-503-504-510>518-231000-
NORTHWEST PLATEAU/NORTHCENTRAL MOUNTAINS
  
CITY           SKY/WX    TMP DP  RH WIND       PRES   REMARKS
FARMINGTON     FAIR      69  51  52 E6        30.36F                  
LOS ALAMOS       N/A     61  53  74 SW9       30.52S                  
SANTA FE       FAIR      63  52  67 S7        30.46F                  

$$
NMZ402-403-502-505>509-231000-
WESTCENTRAL MOUNTAINS/SOUTHWEST MOUNTAINS
  
CITY           SKY/WX    TMP DP  RH WIND       PRES   REMARKS
GALLUP         FAIR      62  50  64 SE3       30.41F                  
GRANTS         DRIZZLE   59  55  85 S3        30.42F                  
SILVER CITY    FAIR      66  57  73 SE7       30.36R                  

$$
NMZ407-409-411-412-231000-
SOUTHERN DESERTS
  
CITY           SKY/WX    TMP DP  RH WIND       PRES   REMARKS
DEMING         LGT RAIN  69  63  81 SW3       30.28F                  
LAS CRUCES     CLOUDY    77  55  45 SE10G16   30.30R                  
HOLLOMAN AFB   CLOUDY    70  63  78 SW5       30.28S                  
ALAMOGORDO     LGT RAIN  73  57  56 S5        30.28R                  
T OR C         CLOUDY    74  59  59 N15G23    30.30F                  

$$
NMZ519>523-231000-
CENTRAL VALLEYS/CENTRAL HIGHLANDS
  
CITY           SKY/WX    TMP DP  RH WIND       PRES   REMARKS
ALBUQUERQUE    MOCLDY    69  56  62 SE12      30.38F                  
DOUBLE EAGLE   FAIR      66  55  68 SE13      30.41F                  
CLINES CORNERS MOCLDY    59  53  80 E9        30.51                   
BELEN          FAIR      65  56  72 S3        30.38F                  
SOCORRO        CLOUDY    71  54  54 N7        30.36S                  

$$
NMZ524>526-539-540-231000-
SOUTHCENTRAL MOUNTAINS
  
CITY           SKY/WX    TMP DP  RH WIND       PRES   REMARKS
RUIDOSO        LGT RAIN  59  59 100 SE7       30.49F                  

$$
NMZ527>531-231000-
NORTHEAST HIGHLANDS/NORTHEAST PLAINS
  
CITY           SKY/WX    TMP DP  RH WIND       PRES   REMARKS
LAS VEGAS      CLOUDY    59  56  89 E6        30.52S                  
RATON          FAIR      58  57  97 SE3       30.48S                  
CLAYTON        MOCLDY    64  58  80 SE7       30.40F                  

$$
NMZ532>537-231000-
EASTCENTRAL PLAINS
  
CITY           SKY/WX    TMP DP  RH WIND       PRES   REMARKS
SANTA ROSA     FAIR      70  60  71 E6        30.37S                  
TUCUMCARI      FAIR      66  59  78 CALM      30.32F                  
CANNON AFB     CLOUDY    67  58  73 E9        30.37S                  
CLOVIS AIRPORT FAIR      64  58  80 E6        30.37S                  

$$
NMZ028-029-538-231000-
SOUTHEAST PLAINS
  
CITY           SKY/WX    TMP DP  RH WIND       PRES   REMARKS
ROSWELL        LGT RAIN  72  64  76 E5        30.28F                  
ARTESIA        DRIZZLE   68  68 100 W3        30.30S                  
CARLSBAD       FAIR      69  66  90 SW5       30.26S                  
HOBBS          FAIR      68  64  88 NE7       30.28                   


$$